"Pseudo-MPEC" for ST22K94

Created 2022 Nov 26 21:22:24 UT using Find_Orb

Click here for an explanation of pseudo-MPECs

 
 Astrometry: 
     ST22K94* C2022 11 22Db]/1MkAstrometryOAexP=redacted;e%$j,b'kn4uXL[[l(Z/fU68
     ST22K94  C2022 11 22i@mZoh65fg,+ldclickuxLDtj?-pB=]L#lFpLo8=*here$for*k/U68
     ST22K94  C2022 11 22PU*(\`LVQkc!l`ObDRTj[`:RD\5'fk1n'KA]V2!XXaPa#um2eImKU68
     ST22K94  C2022 11 22=yp5[_!*'o1SjI/WJA5erQhmD2explanationHG^eF.![G=6RE,cU68

Station data:
(U68) JPL SynTrack Robotic Telescope, Auberry  (N37.070387 W119.412990)
   US/California.  Observers N. Saini, C. Zhai, R. Trahan, M. Zhan, M. Shao.
   0.28-m f/2.2 Schmidt + CCD.

Orbital elements:  ST22K94
   Perihelion 2023 Mar 12.59248 +/- 64.6 TT = 14:13:10 (JD 2460016.09248)
Epoch 2022 Nov 22.0 TT = JDT 2459905.5   Earth MOID: 0.0025   Ve: 0.0903
M 237.11164386 +/- 100              (J2000 ecliptic)          AutoNEOCP
n   1.11118181 +/- 0.735            Peri.  239.73684 +/- 60
a   0.92316493 +/- 0.407            Node   313.77758 +/- 60
e   0.1325983 +/- 0.214             Incl.    0.40611 +/- 49
P   0.89/323.97d           H 27.7   G  0.15   U 12.5  SR
q 0.80075482 +/- 0.31    Q 1.04557505 +/- 10.4
From 4 observations 2022 Nov. 22 (35.8 min); mean residual 0".33
Residuals in arcseconds: 
221122 U68  .23+  .07-    221122 U68  .63+  .11-    
221122 U68  .39-  .10+    221122 U68  .47-  .08+    

Ephemerides (geocentric):
Date (UTC) HH   RA             Dec           delta  r     elong  mag " sig PA
---- --------  ------------   ------------  ------ ------ -----  --- --------
2022 11 26 21  22 52 02.823   +24 26 08.99  .01366 0.9912 107.8 20.8  33d 157
2022 11 26 22  22 50 56.850   +24 16 32.39  .01367 0.9911 107.5 20.8  33d 157
2022 11 26 23  22 49 51.149   +24 06 54.91  .01368 0.9910 107.2 20.8  33d 157
2022 11 27 00  22 48 45.721   +23 57 16.62  .01369 0.9910 106.9 20.9  34d 157
2022 11 27 01  22 47 40.566   +23 47 37.55  .01370 0.9909 106.6 20.9  34d 157
2022 11 27 02  22 46 35.686   +23 37 57.77  .01371 0.9908 106.2 20.9  34d 157
2022 11 27 03  22 45 31.081   +23 28 17.33  .01372 0.9907 105.9 20.9  34d 157
2022 11 27 04  22 44 26.752   +23 18 36.28  .01373 0.9907 105.6 20.9  34d 157
2022 11 27 05  22 43 22.701   +23 08 54.67  .01375 0.9906 105.3 20.9  34d 157
2022 11 27 06  22 42 18.927   +22 59 12.56  .01376 0.9905 105.0 20.9  34d 157
2022 11 27 07  22 41 15.432   +22 49 29.99  .01377 0.9904 104.7 20.9  34d 157
2022 11 27 08  22 40 12.216   +22 39 47.03  .01378 0.9903 104.3 21.0  34d 157
2022 11 27 09  22 39 09.280   +22 30 03.71  .01380 0.9903 104.0 21.0  35d 157
2022 11 27 10  22 38 06.624   +22 20 20.09  .01381 0.9902 103.7 21.0  35d 157
2022 11 27 11  22 37 04.248   +22 10 36.21  .01383 0.9901 103.4 21.0  35d 157
2022 11 27 12  22 36 02.154   +22 00 52.14  .01384 0.9900 103.1 21.0  35d 157
2022 11 27 13  22 35 00.341   +21 51 07.91  .01386 .98996 102.8 21.0  35d 157
2022 11 27 14  22 33 58.811   +21 41 23.58  .01387 .98988 102.4 21.0  35d 156
2022 11 27 15  22 32 57.562   +21 31 39.20  .01389 .98981 102.1 21.0  35d 156
2022 11 27 16  22 31 56.595   +21 21 54.81  .01390 .98973 101.8 21.1  35d 156
2022 11 27 17  22 30 55.911   +21 12 10.45  .01392 .98965 101.5 21.1  35d 156
2022 11 27 18  22 29 55.510   +21 02 26.18  .01394 .98957 101.2 21.1  35d 156
2022 11 27 19  22 28 55.392   +20 52 42.05  .01395 .98949 100.9 21.1  36d 156
2022 11 27 20  22 27 55.556   +20 42 58.09  .01397 .98942 100.6 21.1  36d 156
2022 11 27 21  22 26 56.003   +20 33 14.35  .01399 .98934 100.3 21.1  36d 156
2022 11 27 22  22 25 56.733   +20 23 30.88  .01401 .98926 100.0 21.1  36d 156
2022 11 27 23  22 24 57.745   +20 13 47.73  .01402 .98918  99.7 21.2  36d 156
2022 11 28 00  22 23 59.041   +20 04 04.92  .01404 .98910  99.3 21.2  36d 156
2022 11 28 01  22 23 00.618   +19 54 22.52  .01406 .98902  99.0 21.2  36d 156
2022 11 28 02  22 22 02.478   +19 44 40.55  .01408 .98895  98.7 21.2  36d 156
2022 11 28 03  22 21 04.620   +19 34 59.07  .01410 .98887  98.4 21.2  36d 156
2022 11 28 04  22 20 07.043   +19 25 18.11  .01412 .98879  98.1 21.2  36d 156
2022 11 28 05  22 19 09.748   +19 15 37.72  .01414 .98871  97.8 21.2  36d 156
2022 11 28 06  22 18 12.734   +19 05 57.92  .01416 .98863  97.5 21.2  37d 156
2022 11 28 07  22 17 16.000   +18 56 18.77  .01418 .98855  97.2 21.3  37d 156
2022 11 28 08  22 16 19.547   +18 46 40.30  .01420 .98847  96.9 21.3  37d 156
2022 11 28 09  22 15 23.374   +18 37 02.56  .01422 .98840  96.6 21.3  37d 156
2022 11 28 10  22 14 27.480   +18 27 25.56  .01425 .98832  96.3 21.3  37d 156
2022 11 28 11  22 13 31.865   +18 17 49.37  .01427 .98824  96.0 21.3  37d 156
2022 11 28 12  22 12 36.529   +18 08 14.00  .01429 .98816  95.7 21.3  37d 156
2022 11 28 13  22 11 41.470   +17 58 39.50  .01431 .98808  95.4 21.3  37d 156
2022 11 28 14  22 10 46.688   +17 49 05.90  .01434 .98800  95.1 21.4  37d 156
2022 11 28 15  22 09 52.183   +17 39 33.24  .01436 .98792  94.8 21.4  37d 156
2022 11 28 16  22 08 57.953   +17 30 01.55  .01438 .98784  94.5 21.4  37d 156
2022 11 28 17  22 08 03.999   +17 20 30.85  .01441 .98777  94.2 21.4  37d 156
2022 11 28 18  22 07 10.320   +17 11 01.20  .01443 .98769  93.9 21.4  38d 156
2022 11 28 19  22 06 16.914   +17 01 32.61  .01445 .98761  93.6 21.4  38d 156
2022 11 28 20  22 05 23.781   +16 52 05.12  .01448 .98753  93.4 21.4  38d 156